FW3090 Weather Reports


Display with metric or nautical units.
time (UTC)temp
F
wind
direction
speed
MPH
gust
MPH
rain 1hr
in
rain 24hr
in
rain mn
in
humidity
%
barometer
mb
20260509005654 64 306 0.0 0.0 0.00 0.00 0.00 36 1000.6
20260509005147 65 306 0.0 3.0 0.00 0.00 0.00 34 1000.7
20260509004642 65 306 1.0 3.0 0.00 0.00 0.00 34 1000.5
20260509004135 66 306 2.0 5.0 0.00 0.00 0.00 35 1000.7
20260509003855 67 306 3.0 7.0 0.00 0.00 0.00 30 1000.6
20260509003124 67 288 2.0 7.0 0.00 0.00 0.00 29 1000.6
20260509002617 67 228 0.0 3.0 0.00 0.00 0.00 33 1000.7
20260509002112 67 228 0.0 0.0 0.00 0.00 0.00 33 1000.7
20260509001605 68 228 0.0 0.0 0.00 0.00 0.00 29 1000.7
20260509001059 68 228 0.0 0.0 0.00 0.00 0.00 30 1000.9
20260509000554 68 228 0.0 2.0 0.00 0.00 0.00 29 1000.7
20260509000047 69 228 1.0 3.0 0.00 0.00 0.00 29 1000.9
20260508235542 69 228 2.0 5.0 0.00 0.00 0.00 27 1000.7
20260508235035 70 228 2.0 5.0 0.00 0.00 0.00 27 1001.0
20260508234745 70 244 3.0 7.0 0.00 0.00 0.00 26 1001.1
20260508234023 70 284 3.0 7.0 0.00 0.00 0.00 24 1001.1
20260508233519 71 241 3.0 7.0 0.00 0.00 0.00 25 1001.2
20260508233011 71 264 3.0 7.0 0.00 0.00 0.00 24 1001.2
20260508232507 71 277 3.0 7.0 0.00 0.00 0.00 25 1001.3
20260508231959 71 250 4.0 9.0 0.00 0.00 0.00 25 1001.4
20260508231708 71 259 5.0 11.0 0.00 0.00 0.00 23 1001.4
20260508231659 71 254 5.0 9.0 0.00 0.00 0.00 24 1001.4
20260508230500 71 234 6.0 11.0 0.00 0.00 0.00 23 1001.5
20260508225958 71 301 5.0 10.0 0.00 0.00 0.00 23 1001.5
20260508225456 71 286 4.0 8.0 0.00 0.00 0.00 25 1001.6
20260508224954 71 248 5.0 8.0 0.00 0.00 0.00 25 1001.6
20260508224452 72 286 5.0 10.0 0.00 0.00 0.00 24 1001.7
20260508223949 72 296 4.0 10.0 0.00 0.00 0.00 25 1001.9
20260508223447 71 268 5.0 8.0 0.00 0.00 0.00 25 1001.8
20260508222947 72 288 4.0 8.0 0.00 0.00 0.00 25 1001.9
20260508222448 72 273 4.0 9.0 0.00 0.00 0.00 23 1001.9
20260508222209 71 291 5.0 9.0 0.00 0.00 0.00 24 1002.0
20260508221711 71 261 6.0 12.0 0.00 0.00 0.00 23 1002.0
20260508220947 72 292 7.0 13.0 0.00 0.00 0.00 22 1001.9
20260508220448 72 265 7.0 13.0 0.00 0.00 0.00 22 1002.0
20260508215946 72 271 7.0 10.0 0.00 0.00 0.00 24 1002.1
20260508215444 73 264 7.0 13.0 0.00 0.00 0.00 22 1002.2
20260508214944 72 286 7.0 13.0 0.00 0.00 0.00 25 1002.3
20260508214444 72 302 5.0 11.0 0.00 0.00 0.00 23 1002.3
20260508213938 72 275 6.0 11.0 0.00 0.00 0.00 23 1002.4
20260508213431 71 294 6.0 10.0 0.00 0.00 0.00 24 1002.5
20260508213410 71 300 8.0 12.0 0.00 0.00 0.00 23 1002.5
20260508212421 71 298 9.0 13.0 0.00 0.00 0.00 22 1002.5
20260508211914 71 299 7.0 13.0 0.00 0.00 0.00 22 1002.5
20260508211407 71 273 6.0 10.0 0.00 0.00 0.00 23 1002.6
20260508210902 71 265 6.0 11.0 0.00 0.00 0.00 22 1002.6
20260508210355 72 273 6.0 11.0 0.00 0.00 0.00 23 1002.7
20260508205851 73 238 7.0 12.0 0.00 0.00 0.00 22 1002.8
20260508205343 72 269 7.0 13.0 0.00 0.00 0.00 23 1002.7
20260508204838 73 295 6.0 13.0 0.00 0.00 0.00 23 1002.8
20260508204331 74 302 5.0 9.0 0.00 0.00 0.00 23 1002.8
20260508203826 73 301 6.0 12.0 0.00 0.00 0.00 22 1002.9
20260508203319 72 247 7.0 13.0 0.00 0.00 0.00 22 1003.2
20260508202814 73 275 7.0 14.0 0.00 0.00 0.00 20 1003.1
20260508202307 74 274 7.0 14.0 0.00 0.00 0.00 21 1003.3
20260508201801 74 292 7.0 15.0 0.00 0.00 0.00 21 1003.3
20260508201255 74 331 6.0 15.0 0.00 0.00 0.00 22 1003.5
20260508200749 74 307 7.0 14.0 0.00 0.00 0.00 21 1003.5
20260508200244 74 304 8.0 14.0 0.00 0.00 0.00 21 1003.7
20260508195737 74 269 7.0 13.0 0.00 0.00 0.00 21 1003.9
20260508195232 74 285 7.0 14.0 0.00 0.00 0.00 23 1003.9
20260508194730 74 234 7.0 14.0 0.00 0.00 0.00 20 1003.9
20260508194229 73 277 5.0 10.0 0.00 0.00 0.00 24 1004.0
20260508193952 73 231 5.0 10.0 0.00 0.00 0.00 26 1004.1
20260508193230 72 277 6.0 11.0 0.00 0.00 0.00 22 1004.2
20260508192730 72 296 7.0 12.0 0.00 0.00 0.00 22 1004.4
20260508192229 73 315 7.0 12.0 0.00 0.00 0.00 24 1004.4
20260508191729 73 281 7.0 13.0 0.00 0.00 0.00 21 1004.4
20260508191229 73 239 7.0 14.0 0.00 0.00 0.00 23 1004.5
20260508190729 73 240 8.0 14.0 0.00 0.00 0.00 21 1004.5
20260508190449 74 270 6.0 13.0 0.00 0.00 0.00 21 1004.6
20260508185729 73 227 5.0 9.0 0.00 0.00 0.00 24 1004.7
20260508185229 73 284 5.0 14.0 0.00 0.00 0.00 23 1004.7
20260508184729 73 283 6.0 14.0 0.00 0.00 0.00 22 1004.9
20260508184226 72 240 6.0 14.0 0.00 0.00 0.00 23 1005.0
20260508183727 71 254 7.0 14.0 0.00 0.00 0.00 22 1005.1
20260508183225 72 270 6.0 11.0 0.00 0.00 0.00 23 1005.1
20260508182948 71 231 5.0 11.0 0.00 0.00 0.00 24 1005.2
20260508182711 69 277 7.0 14.0 0.00 0.00 0.00 23 1006.0
20260508181725 71 288 7.0 14.0 0.00 0.00 0.00 19 1005.4
20260508181705 72 259 6.0 10.0 0.00 0.00 0.00 23 1005.3
20260508180726 71 273 6.0 10.0 0.00 0.00 0.00 20 1005.4
20260508180226 71 294 8.0 13.0 0.00 0.00 0.00 23 1005.6
20260508175945 72 279 8.0 13.0 0.00 0.00 0.00 23 1005.6
20260508175221 70 321 7.0 16.0 0.00 0.00 0.00 25 1005.7
20260508174722 68 250 7.0 16.0 0.00 0.00 0.00 24 1005.9
20260508174221 67 235 6.0 10.0 0.00 0.00 0.00 25 1005.9
20260508173722 69 263 6.0 12.0 0.00 0.00 0.00 22 1006.1
20260508173222 70 225 6.0 12.0 0.00 0.00 0.00 24 1006.2
20260508172722 71 300 5.0 11.0 0.00 0.00 0.00 23 1006.2
20260508172221 71 287 5.0 11.0 0.00 0.00 0.00 24 1006.3
20260508171721 69 277 6.0 10.0 0.00 0.00 0.00 26 1006.4
20260508171440 68 226 6.0 10.0 0.00 0.00 0.00 25 1006.5
20260508170715 68 269 6.0 13.0 0.00 0.00 0.00 27 1006.6
20260508170208 67 213 6.0 13.0 0.00 0.00 0.00 25 1006.5
20260508165703 68 221 5.0 11.0 0.00 0.00 0.00 26 1006.7
20260508165157 67 243 5.0 11.0 0.00 0.00 0.00 27 1006.8
20260508164650 67 263 4.0 9.0 0.00 0.00 0.00 28 1006.9
20260508164145 65 229 4.0 9.0 0.00 0.00 0.00 29 1006.9
20260508163638 66 250 5.0 10.0 0.00 0.00 0.00 30 1007.0
20260508163133 65 255 6.0 12.0 0.00 0.00 0.00 29 1007.0
20260508162628 65 220 6.0 12.0 0.00 0.00 0.00 30 1007.1
20260508162340 65 208 6.0 9.0 0.00 0.00 0.00 31 1007.2
20260508161615 64 261 6.0 9.0 0.00 0.00 0.00 30 1007.2
20260508161108 64 221 7.0 10.0 0.00 0.00 0.00 29 1007.4
20260508160603 64 217 7.0 12.0 0.00 0.00 0.00 30 1007.4
20260508160056 65 246 6.0 12.0 0.00 0.00 0.00 29 1007.4
20260508155551 64 212 6.0 14.0 0.00 0.00 0.00 33 1007.4
20260508155044 63 215 8.0 14.0 0.00 0.00 0.00 31 1007.5
20260508154539 64 229 7.0 11.0 0.00 0.00 0.00 34 1007.6
20260508154032 64 211 6.0 11.0 0.00 0.00 0.00 31 1007.6
20260508153526 63 238 6.0 11.0 0.00 0.00 0.00 30 1007.7
20260508153020 63 225 5.0 11.0 0.00 0.00 0.00 29 1007.8
20260508152516 62 232 5.0 10.0 0.00 0.00 0.00 35 1007.9
20260508152009 60 230 4.0 10.0 0.00 0.00 0.00 36 1007.9
20260508151502 59 234 4.0 8.0 0.00 0.00 0.00 36 1008.0
20260508150957 59 224 5.0 8.0 0.00 0.00 0.00 36 1008.1
20260508150708 58 246 4.0 8.0 0.00 0.00 0.00 35 1008.1
20260508145945 58 211 2.0 7.0 0.00 0.00 0.00 38 1008.3
20260508145700 57 292 2.0 7.0 0.00 0.00 0.00 40 1008.4
20260508144933 57 218 3.0 7.0 0.00 0.00 0.00 41 1008.4
20260508144427 56 223 3.0 7.0 0.00 0.00 0.00 39 1008.6
20260508144141 55 221 3.0 6.0 0.00 0.00 0.00 40 1008.5
20260508143415 55 239 3.0 7.0 0.00 0.00 0.00 41 1008.5
20260508143130 54 216 3.0 7.0 0.00 0.00 0.00 41 1008.6
20260508142403 53 192 2.0 5.0 0.00 0.00 0.00 43 1008.6
20260508141856 53 180 1.0 5.0 0.00 0.00 0.00 46 1008.7
20260508141351 52 179 1.0 4.0 0.00 0.00 0.00 48 1008.7
20260508140844 52 177 1.0 5.0 0.00 0.00 0.00 50 1008.7
20260508140338 51 171 1.0 5.0 0.00 0.00 0.00 50 1008.7
20260508135833 51 94 1.0 3.0 0.00 0.00 0.00 51 1008.8
20260508135327 50 92 0.0 3.0 0.00 0.00 0.00 54 1008.8
20260508134820 49 89 1.0 3.0 0.00 0.00 0.00 55 1008.9
20260508134315 49 89 1.0 3.0 0.00 0.00 0.00 56 1008.9
20260508133808 48 89 2.0 4.0 0.00 0.00 0.00 58 1008.9
20260508133753 48 89 1.0 4.0 0.00 0.00 0.00 59 1009.0
20260508132757 47 106 1.0 4.0 0.00 0.00 0.00 60 1009.0
20260508132512 47 105 2.0 4.0 0.00 0.00 0.00 60 1008.9
20260508132005 46 112 2.0 4.0 0.00 0.00 0.00 62 1009.0
20260508131238 46 131 2.0 4.0 0.00 0.00 0.00 62 1009.0
20260508130958 45 102 1.0 3.0 0.00 0.00 0.00 63 1009.1
20260508130457 44 99 1.0 3.0 0.00 0.00 0.00 65 1009.1
20260508125721 44 97 2.0 4.0 0.00 0.00 0.00 69 1009.1
20260508125440 43 96 1.0 4.0 0.00 0.00 0.00 70 1009.2
20260508124929 43 96 1.0 4.0 0.00 0.00 0.00 72 1009.2
20260508124203 42 96 2.0 6.0 0.00 0.00 0.00 72 1009.1
20260508124145 42 96 3.0 6.0 0.00 0.00 0.00 73 1009.0
20260508123151 41 96 3.0 6.0 0.00 0.00 0.00 74 1009.0
20260508122645 40 97 4.0 6.0 0.00 0.00 0.00 76 1009.0
20260508122138 40 89 4.0 7.0 0.00 0.00 0.00 76 1009.1
20260508122118 39 96 3.0 7.0 0.00 0.00 0.00 77 1009.0
20260508121127 38 91 3.0 6.0 0.00 0.00 0.00 78 1009.0
20260508120621 37 102 3.0 4.0 0.00 0.00 0.00 80 1008.9
20260508120115 37 99 3.0 4.0 0.00 0.00 0.00 80 1008.9
20260508115608 36 94 2.0 4.0 0.00 0.00 0.00 81 1008.8
20260508115102 35 92 2.0 3.0 0.00 0.00 0.00 82 1008.8
20260508114557 35 92 2.0 3.0 0.00 0.00 0.00 82 1008.8
20260508114050 34 92 2.0 3.0 0.00 0.00 0.00 82 1008.7
20260508113804 34 92 2.0 3.0 0.00 0.00 0.00 82 1008.7
20260508113038 34 92 2.0 3.0 0.00 0.00 0.00 81 1008.7
20260508112533 34 92 2.0 3.0 0.00 0.00 0.00 80 1008.8
20260508112026 35 93 2.0 3.0 0.00 0.00 0.00 80 1008.8
20260508111520 35 93 2.0 3.0 0.00 0.00 0.00 80 1008.7
20260508111014 35 93 2.0 3.0 0.00 0.00 0.00 81 1008.8
20260508110515 34 93 2.0 3.0 0.00 0.00 0.00 81 1008.7
20260508110013 34 93 2.0 3.0 0.00 0.00 0.00 80 1008.7
20260508105510 35 93 2.0 3.0 0.00 0.00 0.00 79 1008.7
20260508105010 35 93 2.0 3.0 0.00 0.00 0.00 79 1008.8
20260508104510 35 93 2.0 3.0 0.00 0.00 0.00 79 1008.8
20260508104454 35 93 2.0 3.0 0.00 0.00 0.00 79 1008.8
20260508103727 35 93 2.0 3.0 0.00 0.00 0.00 79 1008.9
20260508103006 35 93 2.0 3.0 0.00 0.00 0.00 80 1008.9
20260508102729 35 93 2.0 3.0 0.00 0.00 0.00 79 1008.8
20260508102006 35 93 2.0 3.0 0.00 0.00 0.00 79 1008.9
20260508101506 35 93 2.0 3.0 0.00 0.00 0.00 79 1008.8
20260508101006 35 93 2.0 3.0 0.00 0.00 0.00 79 1009.0
20260508100506 35 93 2.0 3.0 0.00 0.00 0.00 79 1008.9
20260508100003 35 93 2.0 3.0 0.00 0.00 0.00 79 1009.0
20260508095502 35 93 2.0 3.0 0.00 0.00 0.00 80 1009.1
20260508095002 35 93 2.0 3.0 0.00 0.00 0.00 81 1009.0
20260508094503 35 93 2.0 3.0 0.00 0.00 0.00 81 1008.9
20260508094003 34 92 2.0 3.0 0.00 0.00 0.00 81 1009.0
20260508093503 34 92 2.0 4.0 0.00 0.00 0.00 81 1009.0
20260508093003 34 93 2.0 4.0 0.00 0.00 0.00 81 1009.0
20260508092502 33 87 2.0 4.0 0.00 0.00 0.00 81 1009.2
20260508092224 33 91 2.0 4.0 0.00 0.00 0.00 81 1009.1
20260508091503 33 91 2.0 3.0 0.00 0.00 0.00 80 1009.1
20260508091003 33 90 2.0 3.0 0.00 0.00 0.00 80 1009.2
20260508090503 33 90 2.0 3.0 0.00 0.00 0.00 81 1009.2
20260508090003 33 90 1.0 3.0 0.00 0.00 0.00 81 1009.3
20260508085727 33 90 1.0 3.0 0.00 0.00 0.00 80 1009.4
20260508085002 33 82 1.0 3.0 0.00 0.00 0.00 80 1009.5
20260508084502 32 82 2.0 3.0 0.00 0.00 0.00 81 1009.5
20260508084003 32 82 2.0 4.0 0.00 0.00 0.00 80 1009.4
20260508083725 32 82 2.0 4.0 0.00 0.00 0.00 79 1009.4
20260508082955 32 80 2.0 3.0 0.00 0.00 0.00 79 1009.4
20260508082450 32 80 2.0 3.0 0.00 0.00 0.00 79 1009.4
20260508081943 32 80 1.0 2.0 0.00 0.00 0.00 80 1009.5
20260508081438 32 80 1.0 3.0 0.00 0.00 0.00 79 1009.5
20260508080932 32 80 1.0 3.0 0.00 0.00 0.00 78 1009.4
20260508080425 32 62 2.0 3.0 0.00 0.00 0.00 78 1009.4
20260508075920 32 46 2.0 3.0 0.00 0.00 0.00 77 1009.4
20260508075640 33 46 1.0 3.0 0.00 0.00 0.00 77 1009.5
20260508075125 33 28 1.0 3.0 0.00 0.00 0.00 76 1009.6
20260508074401 33 27 1.0 2.0 0.00 0.00 0.00 76 1009.5
20260508073856 33 27 1.0 2.0 0.00 0.00 0.00 77 1009.6
20260508073349 33 27 1.0 2.0 0.00 0.00 0.00 77 1009.6
20260508072843 33 27 0.0 2.0 0.00 0.00 0.00 75 1009.6
20260508072339 33 27 0.0 2.0 0.00 0.00 0.00 75 1009.5
20260508071831 34 26 0.0 1.0 0.00 0.00 0.00 76 1009.7
20260508071326 34 26 0.0 2.0 0.00 0.00 0.00 76 1009.7
20260508070820 34 26 0.0 0.0 0.00 0.00 0.00 76 1009.8
20260508070313 34 26 0.0 0.0 0.00 0.00 0.00 75 1009.7
20260508065807 34 26 0.0 0.0 0.00 0.00 0.00 74 1009.8
20260508065306 34 26 0.0 0.0 0.00 0.00 0.00 74 1009.8
20260508064755 34 26 0.0 0.0 0.00 0.00 0.00 74 1009.8
20260508064249 34 26 0.0 0.0 0.00 0.00 0.00 74 1009.9
20260508063744 35 26 0.0 0.0 0.00 0.00 0.00 74 1009.8
20260508063238 35 26 0.0 0.0 0.00 0.00 0.00 74 1009.8
20260508062732 35 26 0.0 0.0 0.00 0.00 0.00 73 1009.9
20260508062225 35 26 0.0 0.0 0.00 0.00 0.00 73 1010.0
20260508061721 35 26 0.0 0.0 0.00 0.00 0.00 71 1010.0
20260508061213 35 26 0.0 1.0 0.00 0.00 0.00 71 1010.1
20260508060929 35 26 0.0 1.0 0.00 0.00 0.00 71 1010.3
20260508060202 36 26 0.0 0.0 0.00 0.00 0.00 69 1010.1
20260508055655 36 26 0.0 0.0 0.00 0.00 0.00 69 1010.1
20260508055150 36 26 0.0 0.0 0.00 0.00 0.00 69 1010.3
20260508054644 37 26 0.0 0.0 0.00 0.00 0.00 69 1010.4
20260508054137 37 26 0.0 0.0 0.00 0.00 0.00 67 1010.3
20260508053632 37 26 0.0 0.0 0.00 0.00 0.00 67 1010.3
20260508053125 37 26 0.0 0.0 0.00 0.00 0.00 66 1010.4
20260508052620 37 26 0.0 0.0 0.00 0.00 0.00 67 1010.3
20260508052557 38 26 0.0 0.0 0.00 0.00 0.00 66 1010.4
20260508051608 38 26 0.0 0.0 0.00 0.00 0.00 66 1010.5
20260508051101 38 26 0.0 0.0 0.00 0.00 0.00 66 1010.5
20260508050558 38 26 0.0 0.0 0.00 0.00 0.00 66 1010.5
20260508050057 38 26 0.0 0.0 0.00 0.00 0.00 64 1010.6
20260508045557 38 26 0.0 0.0 0.00 0.00 0.00 64 1010.6
20260508045057 38 26 0.0 0.0 0.00 0.00 0.00 65 1010.5
20260508044556 39 26 0.0 0.0 0.00 0.00 0.00 66 1010.5
20260508044315 39 26 0.0 0.0 0.00 0.00 0.00 66 1010.6
20260508044044 39 26 0.0 0.0 0.00 0.00 0.00 65 1010.6
20260508043056 39 26 0.0 0.0 0.00 0.00 0.00 65 1010.6
20260508042556 39 26 0.0 0.0 0.00 0.00 0.00 63 1010.6
20260508042056 39 26 0.0 0.0 0.00 0.00 0.00 61 1010.7
20260508041550 39 26 0.0 0.0 0.00 0.00 0.00 60 1010.6
20260508041301 39 26 0.0 0.0 0.00 0.00 0.00 59 1010.6
20260508040538 40 26 0.0 0.0 0.00 0.00 0.00 60 1010.7
20260508040032 40 26 0.0 0.0 0.00 0.00 0.00 60 1010.6
20260508035526 40 26 0.0 0.0 0.00 0.00 0.00 61 1010.6
20260508035021 40 26 0.0 0.0 0.00 0.00 0.00 62 1010.6
20260508034514 40 26 0.0 0.0 0.00 0.00 0.00 62 1010.6
20260508034008 40 26 0.0 0.0 0.00 0.00 0.00 63 1010.7
20260508033501 40 26 0.0 0.0 0.00 0.00 0.00 59 1010.7
20260508032956 40 26 0.0 0.0 0.00 0.00 0.00 57 1010.7
20260508032707 40 26 0.0 0.0 0.00 0.00 0.00 58 1010.6
20260508031944 40 25 0.0 0.0 0.00 0.00 0.00 61 1010.6
20260508031437 41 25 0.0 0.0 0.00 0.00 0.00 66 1010.6
20260508030932 41 25 0.0 0.0 0.00 0.00 0.00 65 1010.6
20260508030426 41 25 0.0 0.0 0.00 0.00 0.00 58 1010.6
20260508025919 41 25 0.0 0.0 0.00 0.00 0.00 54 1010.6
20260508025414 41 25 0.0 0.0 0.00 0.00 0.00 57 1010.6
20260508025127 42 25 0.0 2.0 0.00 0.00 0.00 56 1010.5
20260508024402 42 25 1.0 2.0 0.00 0.00 0.00 58 1010.4
20260508023855 43 25 0.0 2.0 0.00 0.00 0.00 61 1010.4
20260508023350 44 25 0.0 2.0 0.00 0.00 0.00 53 1010.4
20260508022843 44 25 0.0 2.0 0.00 0.00 0.00 47 1010.5
20260508022557 44 25 0.0 0.0 0.00 0.00 0.00 47 1010.4
20260508021832 44 25 0.0 0.0 0.00 0.00 0.00 47 1010.4
20260508021325 44 25 0.0 0.0 0.00 0.00 0.00 49 1010.4
20260508020820 44 25 0.0 0.0 0.00 0.00 0.00 50 1010.4
20260508020313 44 25 0.0 0.0 0.00 0.00 0.00 50 1010.3
20260508015807 44 25 0.0 2.0 0.00 0.00 0.00 51 1010.4
20260508015524 45 25 0.0 2.0 0.00 0.00 0.00 51 1010.1
20260508014756 46 25 0.0 2.0 0.00 0.00 0.00 47 1010.0
20260508014251 46 25 0.0 2.0 0.00 0.00 0.00 45 1010.0
20260508013743 46 25 0.0 0.0 0.00 0.00 0.00 46 1010.0
20260508013238 47 25 0.0 0.0 0.00 0.00 0.00 44 1009.9
20260508012732 47 25 0.0 0.0 0.00 0.00 0.00 44 1009.9
20260508012225 48 25 0.0 0.0 0.00 0.00 0.00 43 1009.9
20260508011720 49 25 0.0 0.0 0.00 0.00 0.00 44 1009.9
20260508011213 50 25 0.0 0.0 0.00 0.00 0.00 41 1009.9
20260508010928 50 25 0.0 0.0 0.00 0.00 0.00 39 1009.8
20260508010202 51 25 0.0 2.0 0.00 0.00 0.00 37 1009.7